| time (UTC) | temp F | wind direction | speed MPH | gust MPH | rain 1hr in | rain 24hr in | rain mn in | humidity % | barometer mb |
| 20260505021622 | 68 | 233 | 1.0 | 3.0 | 0.00 | 0.00 | 0.00 | 30 | 1006.2 |
| 20260505020617 | 69 | 187 | 0.0 | 5.0 | 0.00 | 0.00 | 0.00 | 29 | 1006.2 |
| 20260505015617 | 70 | 288 | 2.0 | 5.0 | 0.00 | 0.00 | 0.00 | 28 | 1006.1 |
| 20260505014627 | 70 | 193 | 2.0 | 7.0 | 0.00 | 0.00 | 0.00 | 28 | 1006.1 |
| 20260505013636 | 71 | 229 | 3.0 | 8.0 | 0.00 | 0.00 | 0.00 | 27 | 1006.0 |
| 20260505012627 | 71 | 210 | 4.0 | 8.0 | 0.00 | 0.00 | 0.00 | 27 | 1006.0 |
| 20260505011615 | 71 | 202 | 4.0 | 8.0 | 0.00 | 0.00 | 0.00 | 28 | 1006.1 |
| 20260505010624 | 71 | 212 | 4.0 | 8.0 | 0.00 | 0.00 | 0.00 | 27 | 1006.2 |
| 20260505005622 | 72 | 240 | 4.0 | 11.0 | 0.00 | 0.00 | 0.00 | 27 | 1006.2 |
| 20260505004633 | 71 | 202 | 4.0 | 9.0 | 0.00 | 0.00 | 0.00 | 26 | 1006.2 |
| 20260505003620 | 71 | 219 | 5.0 | 9.0 | 0.00 | 0.00 | 0.00 | 26 | 1006.4 |
| 20260505002628 | 71 | 248 | 5.0 | 12.0 | 0.00 | 0.00 | 0.00 | 27 | 1006.6 |
| 20260505001617 | 72 | 240 | 6.0 | 9.0 | 0.00 | 0.00 | 0.00 | 27 | 1006.6 |
| 20260505000612 | 71 | 227 | 6.0 | 12.0 | 0.00 | 0.00 | 0.00 | 27 | 1006.8 |
| 20260504235646 | 72 | 245 | 5.0 | 14.0 | 0.00 | 0.00 | 0.00 | 27 | 1006.8 |
| 20260504234614 | 73 | 242 | 3.0 | 11.0 | 0.00 | 0.00 | 0.00 | 25 | 1006.7 |
| 20260504233623 | 72 | 227 | 6.0 | 10.0 | 0.00 | 0.00 | 0.00 | 26 | 1006.8 |
| 20260504232635 | 72 | 213 | 4.0 | 10.0 | 0.00 | 0.00 | 0.00 | 26 | 1006.8 |
| 20260504231640 | 72 | 236 | 5.0 | 13.0 | 0.00 | 0.00 | 0.00 | 27 | 1006.8 |
| 20260504230627 | 71 | 247 | 6.0 | 13.0 | 0.00 | 0.00 | 0.00 | 29 | 1006.8 |
| 20260504225628 | 71 | 248 | 7.0 | 15.0 | 0.00 | 0.00 | 0.00 | 28 | 1006.8 |
| 20260504224616 | 73 | 240 | 10.0 | 15.0 | 0.00 | 0.00 | 0.00 | 27 | 1006.8 |
| 20260504223630 | 73 | 240 | 10.0 | 18.0 | 0.00 | 0.00 | 0.00 | 27 | 1006.7 |
| 20260504222620 | 74 | 242 | 5.0 | 11.0 | 0.00 | 0.00 | 0.00 | 21 | 1006.6 |
| 20260504221628 | 74 | 309 | 7.0 | 11.0 | 0.00 | 0.00 | 0.00 | 22 | 1006.6 |
| 20260504220627 | 74 | 284 | 6.0 | 13.0 | 0.00 | 0.00 | 0.00 | 20 | 1006.7 |
| 20260504215612 | 74 | 325 | 3.0 | 11.0 | 0.00 | 0.00 | 0.00 | 20 | 1006.8 |
| 20260504214640 | 75 | 182 | 1.0 | 8.0 | 0.00 | 0.00 | 0.00 | 21 | 1007.0 |
| 20260504213628 | 75 | 341 | 5.0 | 10.0 | 0.00 | 0.00 | 0.00 | 20 | 1007.1 |
| 20260504212624 | 75 | 355 | 4.0 | 11.0 | 0.00 | 0.00 | 0.00 | 20 | 1007.3 |
| 20260504211615 | 74 | 346 | 3.0 | 8.0 | 0.00 | 0.00 | 0.00 | 20 | 1007.5 |
| 20260504210641 | 73 | 269 | 3.0 | 9.0 | 0.00 | 0.00 | 0.00 | 20 | 1007.6 |
| 20260504205619 | 73 | 236 | 5.0 | 9.0 | 0.00 | 0.00 | 0.00 | 21 | 1007.7 |
| 20260504204627 | 73 | 294 | 5.0 | 11.0 | 0.00 | 0.00 | 0.00 | 24 | 1007.7 |
| 20260504203620 | 73 | 116 | 2.0 | 10.0 | 0.00 | 0.00 | 0.00 | 25 | 1007.8 |
| 20260504202628 | 73 | 327 | 6.0 | 11.0 | 0.00 | 0.00 | 0.00 | 26 | 1007.8 |
| 20260504201638 | 73 | 346 | 9.0 | 14.0 | 0.00 | 0.00 | 0.00 | 26 | 1007.9 |
| 20260504200625 | 72 | 26 | 4.0 | 11.0 | 0.00 | 0.00 | 0.00 | 27 | 1007.9 |
| 20260504195629 | 72 | 271 | 7.0 | 16.0 | 0.00 | 0.00 | 0.00 | 27 | 1008.0 |
| 20260504194638 | 72 | 305 | 2.0 | 10.0 | 0.00 | 0.00 | 0.00 | 27 | 1008.1 |
| 20260504193625 | 73 | 292 | 3.0 | 9.0 | 0.00 | 0.00 | 0.00 | 27 | 1008.3 |
| 20260504192613 | 73 | 271 | 3.0 | 8.0 | 0.00 | 0.00 | 0.00 | 26 | 1008.5 |
| 20260504191642 | 72 | 163 | 3.0 | 8.0 | 0.00 | 0.00 | 0.00 | 26 | 1008.5 |
| 20260504190633 | 71 | 321 | 2.0 | 9.0 | 0.00 | 0.00 | 0.00 | 27 | 1008.8 |
| 20260504185613 | 71 | 266 | 6.0 | 9.0 | 0.00 | 0.00 | 0.00 | 27 | 1008.9 |
| 20260504184641 | 71 | 160 | 3.0 | 9.0 | 0.00 | 0.00 | 0.00 | 28 | 1009.0 |
| 20260504183629 | 71 | 250 | 5.0 | 9.0 | 0.00 | 0.00 | 0.00 | 27 | 1009.0 |
| 20260504182620 | 70 | 104 | 3.0 | 8.0 | 0.00 | 0.00 | 0.00 | 28 | 1009.1 |
| 20260504181633 | 71 | 190 | 4.0 | 7.0 | 0.00 | 0.00 | 0.00 | 29 | 1009.4 |
| 20260504180625 | 70 | 288 | 5.0 | 10.0 | 0.00 | 0.00 | 0.00 | 29 | 1009.5 |
| 20260504175646 | 71 | 165 | 3.0 | 7.0 | 0.00 | 0.00 | 0.00 | 28 | 1009.6 |
| 20260504174614 | 70 | 229 | 3.0 | 9.0 | 0.00 | 0.00 | 0.00 | 31 | 1009.6 |
| 20260504173626 | 70 | 248 | 3.0 | 8.0 | 0.00 | 0.00 | 0.00 | 29 | 1009.7 |
| 20260504172615 | 69 | 142 | 3.0 | 6.0 | 0.00 | 0.00 | 0.00 | 31 | 1009.8 |
| 20260504171626 | 68 | 164 | 4.0 | 10.0 | 0.00 | 0.00 | 0.00 | 32 | 1009.8 |
| 20260504170637 | 68 | 183 | 5.0 | 9.0 | 0.00 | 0.00 | 0.00 | 33 | 1009.9 |
| 20260504150631 | 59 | 36 | 2.0 | 5.0 | 0.00 | 0.00 | 0.00 | 36 | 1010.3 |
| 20260504140622 | 52 | 61 | 0.0 | 2.0 | 0.00 | 0.00 | 0.00 | 49 | 1010.4 |
| 20260504130622 | 47 | 142 | 0.0 | 6.0 | 0.00 | 0.00 | 0.00 | 49 | 1010.5 |
| 20260504110626 | 50 | 186 | 0.0 | 3.0 | 0.00 | 0.00 | 0.00 | 46 | 1010.5 |
| 20260504081630 | 60 | 302 | 5.0 | 16.0 | 0.00 | 0.00 | 0.00 | 26 | 1009.0 |
| 20260504080619 | 60 | 80 | 4.0 | 13.0 | 0.00 | 0.00 | 0.00 | 27 | 1009.0 |
| 20260504050642 | 57 | 133 | 1.0 | 6.0 | 0.00 | 0.00 | 0.00 | 33 | 1009.9 |
| 20260504045642 | 57 | 159 | 0.0 | 3.0 | 0.00 | 0.00 | 0.00 | 36 | 1010.0 |
| 20260504044629 | 57 | 159 | 1.0 | 2.0 | 0.00 | 0.00 | 0.00 | 35 | 1010.0 |
| 20260504043616 | 58 | 159 | 1.0 | 3.0 | 0.00 | 0.00 | 0.00 | 36 | 1010.0 |
| 20260504042625 | 58 | 335 | 1.0 | 2.0 | 0.00 | 0.00 | 0.00 | 34 | 1010.1 |
| 20260504041619 | 59 | 334 | 1.0 | 2.0 | 0.00 | 0.00 | 0.00 | 32 | 1010.1 |
| 20260504040610 | 59 | 334 | 0.0 | 2.0 | 0.00 | 0.00 | 0.00 | 35 | 1010.1 |
| 20260504035628 | 59 | 334 | 1.0 | 3.0 | 0.00 | 0.00 | 0.00 | 35 | 1010.2 |
| 20260504034615 | 60 | 335 | 0.0 | 2.0 | 0.00 | 0.00 | 0.00 | 33 | 1010.2 |
| 20260504033645 | 61 | 334 | 0.0 | 2.0 | 0.00 | 0.00 | 0.00 | 32 | 1010.1 |
| 20260504032611 | 62 | 334 | 0.0 | 1.0 | 0.00 | 0.00 | 0.00 | 31 | 1010.2 |
| 20260504031615 | 63 | 334 | 0.0 | 2.0 | 0.00 | 0.00 | 0.00 | 29 | 1010.2 |
| 20260504030618 | 64 | 334 | 0.0 | 2.0 | 0.00 | 0.00 | 0.00 | 29 | 1010.1 |
| 20260504025627 | 65 | 335 | 1.0 | 2.0 | 0.00 | 0.00 | 0.00 | 24 | 1010.1 |
| 20260504024640 | 66 | 334 | 1.0 | 2.0 | 0.00 | 0.00 | 0.00 | 27 | 1010.1 |
| 20260504023628 | 67 | 335 | 1.0 | 3.0 | 0.00 | 0.00 | 0.00 | 25 | 1010.1 |
| 20260504022615 | 69 | 335 | 2.0 | 2.0 | 0.00 | 0.00 | 0.00 | 23 | 1010.1 |